Regional Weather Roundup
Issued by NWS

Home | Current Version | Previous Version | Text Only | Print | Product List | Glossary On
Versions: 1 2 3 4 5 6 7 8 9 10 11 12 13 14 15 16 17 18 19 20 21 22 23 24 25 26 27 28 29 30 31 32 33 34 35 36 37 38 39 40 41 42 43 44 45 46 47 48 49 50
578
ASUS43 KDMX 250701
RWRIA

WEATHER ROUNDUP FOR IOWA
NATIONAL WEATHER SERVICE DES MOINES IA
100 AM CST SAT NOV 25 2017

NOTE: "FAIR" INDICATES FEW OR NO CLOUDS BELOW 12,000 FEET WITH NO
SIGNIFICANT WEATHER AND/OR OBSTRUCTIONS TO VISIBILITY.

* - THESE STATIONS ARE NOT NWS STATIONS...THUS NOT UNDER NWS
QUALITY CONTROL.  THEY ALSO DO NOT REPORT WEATHER SUCH
AS PRECIPITATION OR FOG.

IAZ001>003-012>014-020>022-031>034-043>046-250800-
   NORTHWEST IOWA

CITY           SKY/WX    TMP DP  RH WIND       PRES   REMARKS
CARROLL *      PTCLDY    41  34  75 W14       29.95R
CHEROKEE *     PTCLDY    35  31  85 CALM      29.96R
DENISON *      CLEAR     37  32  81 CALM      29.99R
LE MARS *      CLEAR     37  32  81 W3        29.97R
ORANGE CITY *  CLEAR     34  30  86 CALM      29.95R
SHELDON *      PTCLDY    34  30  86 W7        29.92R WCI  28
SIOUX CITY     CLEAR     34  30  85 CALM      29.99R
SPENCER        CLOUDY    34  30  85 W8        29.92R WCI  27
STORM LAKE *   CLOUDY    34  30  86 W12       29.94R WCI  25
$$

IAZ055>058-069>071-079>083-090>094-250800-
   SOUTHWEST IOWA

CITY           SKY/WX    TMP DP  RH WIND       PRES   REMARKS
ATLANTIC *     CLEAR     41  34  75 NW12      29.97S
AUDUBON *      CLEAR     39  34  81 NW6       29.97R WCI  35
CLARINDA *     CLEAR     43  37  81 N7        30.00
COUNCIL BLFS * CLEAR     43  36  75 W8        29.99R
CRESTON *      CLEAR     36  32  87 W9        29.97R WCI  29
HARLAN  *      CLEAR     39  34  81 NW13      30.01R WCI  32
LAMONI         CLEAR     39  35  86 NW9       29.95R WCI  33
RED OAK *      CLEAR     36  32  87 CALM      29.99R
SHENANDOAH *   CLEAR     39  34  81 SW5       30.00R
$$

IAZ047>049-059>061-072>074-084-250800-
   CENTRAL IOWA

CITY           SKY/WX    TMP DP  RH WIND       PRES   REMARKS
AMES           CLEAR     40  33  76 W7        29.90R
ANKENY *       CLEAR     41  34  75 W6G13     29.92S
BOONE *        CLEAR     39  34  81 W10       29.90R WCI  32
CHARITON *     CLEAR     45  36  70 NW12G18   29.92R
DES MOINES     CLEAR     43  34  70 NW8       29.92R
GRINNELL*      CLEAR     40  34  78 NW9       29.89R WCI  34
KNOXVILLE *    CLEAR     43  32  65 NW10      29.91R
MARSHALLTOWN   CLEAR     36  33  89 NW9       29.88R WCI  29
NEWTON *       CLEAR     43  34  70 NW10      29.90R
PELLA *        CLEAR     43  34  70 NW7       29.92R
PERRY *          N/A     36  32  86 W9        29.93R WCI  29
$$

IAZ004>006-015-016-023>025-035-036-250800-
   NORTH CENTRAL IOWA

CITY           SKY/WX    TMP DP  RH WIND       PRES   REMARKS
ALGONA *       CLOUDY    39  34  81 W10       29.89R WCI  32
CLARION *      CLOUDY    37  36  93 W10       29.88R WCI  30
ESTHERVILLE    PTCLDY    37  32  82 W12       29.88R WCI  29
FORT DODGE *   PTCLDY    41  33  73 VRB3      29.91R
MASON CITY     PTCLDY    37  32  82 W13       29.86R WCI  29
FOREST CITY *    N/A     36  32  87 W7        29.85R WCI  30
WEBSTER CITY * CLOUDY    39  34  81 W13       29.87S WCI  32
IOWA FALLS *     N/A     35  32  88 W8        29.89R WCI  29
$$

IAZ007>011-017>019-026>030-037>042-050>054-066-250800-
   NORTHEAST IOWA

CITY           SKY/WX    TMP DP  RH WIND       PRES   REMARKS
CEDAR RAPIDS   PTCLDY    40  35  83 NW14      29.83R WCI  32
CHARLES CITY * CLEAR     37  36  93 W9        29.83R WCI  31
CLINTON *      CLEAR     41  38  89 NW13      29.77R
DECORAH *      CLEAR     41  34  75 W6        29.78R
DUBUQUE        CLEAR     43  34  70 NW20G25   29.77R
MONTICELLO *   PTCLDY    41  36  81 NW14      29.80R
OELWEIN *      CLEAR     37  37 100 W10       29.82R WCI  30
WATERLOO       CLEAR     39  33  79 W10       29.84R WCI  32
$$

IAZ064-065-067-068-078-250800-
   EAST CENTRAL IOWA

CITY           SKY/WX    TMP DP  RH WIND       PRES   REMARKS
DAVENPORT      CLEAR     43  36  76 NW16      29.80R
IOWA CITY      PTCLDY    47  36  65 NW17G24   29.85R
MT. PLEASANT * CLEAR     46  36  68 NW12      29.86R
MUSCATINE *    CLEAR     45  36  70 NW10      29.84R
QUAD CITIES    CLEAR     47  36  65 NW18G29   29.78R
$$

IAZ062-063-075>077-085>089-095>099-250800-
   SOUTHEAST IOWA

CITY           SKY/WX    TMP DP  RH WIND       PRES   REMARKS
BURLINGTON     CLEAR     46  38  73 NW15      29.83R
FAIRFIELD *    CLEAR     43  36  75 NW13      29.87R
FORT MADISON * CLEAR     45  37  76 NW16      29.85R
KEOKUK *       CLEAR     48  37  66 NW16G23   29.85R
OSKALOOSA *      N/A     42  35  77 NW15      29.90R
OTTUMWA        CLEAR     45  36  70 NW13      29.89R
WASHINGTON *   CLEAR     45  37  76 NW14      29.88R
$$

ABBREVIATIONS USED IN REMARKS
   TC - TEMPERATURES IN CELSIUS
  WCI - WIND CHILL INDEX
   HX - HEAT INDEX
  VSB - VISIBILITY
$$





USA.gov is the U.S. government's official web portal to all federal, state and local government web resources and services.